Bellefontaine, OH

6:14 AM EDT on September 20, 2017 (GMT -0400)
Bellefontaine

Weather History for KEDJ - February, 2013

Change the Weather History Date:

Thursday, February 14, 2013

  Actual Average (KDLZ) Record (KDLZ)
Temperature  
Mean Temperature 37 °F -  
Max Temperature 44 °F 34 °F 66 °F (1990)
Min Temperature 30 °F 17 °F -3 °F (1988)
Degree Days  
Heating Degree Days 28    
Moisture  
Dew Point 32 °F    
Average Humidity 90    
Maximum Humidity 100    
Minimum Humidity 66    
Precipitation  
Precipitation 0.00 in - - ()
Sea Level Pressure  
Sea Level Pressure 29.82 in    
Wind  
Wind Speed 12 mph (SSW)    
Max Wind Speed 22 mph    
Max Gust Speed 26 mph    
Visibility 8 miles    
Events      
Averages and records for this station are not official NWS values.
T = Trace of Precipitation, MM = Missing Value Source: NWS Daily Summary

Daily Weather History Graph

Daily Weather History Graph

Search for Another Location

Airport or City:

Trip Planner

Search our weather history database for the weather conditions in past years. The results will help you decide how hot, cold, wet, or windy it might be!

Date:

Astronomy

Feb. 14, 2013 Rise Set
Actual Time 7:29 AM EST 6:09 PM EST
Civil Twilight 7:01 AM EST 6:37 PM EST
Nautical Twilight 6:29 AM EST 7:09 PM EST
Astronomical Twilight 5:58 AM EST 7:41 PM EST
Moon 9:30 AM EST (2/14) 11:12 PM EST (2/14)
Length of Visible Light 11h 36m
Length of Day
10h 40m
Waxing Crescent, 21% of the Moon is Illuminated
Feb 14
Waxing Crescent
Feb 17
First Quarter
Feb 25
Full
Mar 4
Last Quarter
Mar 11
New

Hourly Weather History & Observations

Time (EST) Temp. Windchill Dew Point Humidity Pressure Visibility Wind Dir Wind Speed Gust Speed Precip Events Conditions
12:15 AM 30.2 °F 23.4 °F 28.4 °F 93% 29.81 in 7.0 mi SSE 6.9 mph - 0.00 in   Scattered Clouds
12:35 AM 30.2 °F 21.9 °F 28.4 °F 93% 29.82 in 6.0 mi SSE 9.2 mph - 0.00 in   Scattered Clouds
12:55 AM 30.2 °F 22.6 °F 30.2 °F 100% 29.81 in 6.0 mi South 8.1 mph - 0.00 in   Overcast
1:15 AM 32.0 °F 25.6 °F 30.2 °F 93% 29.82 in 7.0 mi South 6.9 mph - 0.00 in   Overcast
1:35 AM 32.0 °F 23.6 °F 30.2 °F 93% 29.82 in 8.0 mi South 10.4 mph - 0.00 in   Overcast
1:55 AM 32.0 °F 23.0 °F 30.2 °F 93% 29.81 in 9.0 mi South 11.5 mph - 0.00 in   Overcast
2:15 AM 32.0 °F 22.1 °F 32.0 °F 100% 29.81 in 10.0 mi SSW 13.8 mph - 0.00 in   Overcast
2:35 AM 32.0 °F 22.5 °F 30.2 °F 93% 29.81 in 10.0 mi SSW 12.7 mph - 0.00 in   Overcast
2:55 AM 32.0 °F 22.5 °F 30.2 °F 93% 29.81 in 10.0 mi SSW 12.7 mph - 0.00 in   Scattered Clouds
3:10 AM 32.0 °F 21.6 °F 32.0 °F 100% 29.81 in 10.0 mi SSW 15.0 mph 19.6 mph 0.00 in   Partly Cloudy
3:35 AM 32.0 °F 22.1 °F 32.0 °F 100% 29.81 in 10.0 mi SSW 13.8 mph - 0.00 in   Clear
3:55 AM 32.0 °F 23.0 °F 32.0 °F 100% 29.81 in 10.0 mi South 11.5 mph - 0.00 in   Clear
4:15 AM 32.0 °F 22.5 °F 32.0 °F 100% 29.81 in 10.0 mi South 12.7 mph - 0.00 in   Clear
4:35 AM 32.0 °F 22.5 °F 32.0 °F 100% 29.81 in 10.0 mi South 12.7 mph - 0.00 in   Scattered Clouds
4:55 AM 32.0 °F 21.6 °F 32.0 °F 100% 29.81 in 10.0 mi SSW 15.0 mph - 0.00 in   Mostly Cloudy
5:15 AM 32.0 °F 21.2 °F 32.0 °F 100% 29.81 in 10.0 mi SSW 16.1 mph 24.2 mph 0.00 in   Mostly Cloudy
5:35 AM 32.0 °F 22.5 °F 32.0 °F 100% 29.81 in 7.0 mi SSW 12.7 mph 19.6 mph 0.00 in   Overcast
5:55 AM 32.0 °F 21.6 °F 32.0 °F 100% 29.81 in 5.0 mi SSW 15.0 mph 21.9 mph 0.00 in   Overcast
6:15 AM 32.0 °F 22.1 °F 32.0 °F 100% 29.81 in 5.0 mi SSW 13.8 mph 18.4 mph 0.00 in   Overcast
6:35 AM 32.0 °F 23.6 °F 32.0 °F 100% 29.81 in 4.0 mi South 10.4 mph - 0.00 in   Overcast
6:55 AM 32.0 °F 22.5 °F 32.0 °F 100% 29.81 in 3.0 mi South 12.7 mph - 0.00 in   Overcast
7:15 AM 32.0 °F 22.1 °F 32.0 °F 100% 29.82 in 3.0 mi South 13.8 mph 17.3 mph 0.00 in   Overcast
7:35 AM 32.0 °F 23.0 °F 32.0 °F 100% 29.82 in 4.0 mi South 11.5 mph - 0.00 in   Overcast
7:55 AM 32.0 °F 23.0 °F 32.0 °F 100% 29.82 in 3.0 mi South 11.5 mph - 0.00 in   Overcast
8:15 AM 32.0 °F 22.5 °F 32.0 °F 100% 29.82 in 3.0 mi South 12.7 mph - 0.00 in   Overcast
8:35 AM 32.0 °F 22.5 °F 32.0 °F 100% 29.83 in 2.5 mi South 12.7 mph - 0.00 in   Overcast
8:55 AM 32.0 °F 21.2 °F 32.0 °F 100% 29.83 in 3.0 mi South 16.1 mph 20.7 mph 0.00 in   Overcast
9:15 AM 32.0 °F 22.5 °F 32.0 °F 100% 29.82 in 3.0 mi SSW 12.7 mph - 0.00 in   Overcast
9:35 AM 32.0 °F 22.5 °F 32.0 °F 100% 29.82 in 4.0 mi South 12.7 mph - 0.00 in   Overcast
9:55 AM 32.0 °F 22.5 °F 32.0 °F 100% 29.82 in 4.0 mi South 12.7 mph - 0.00 in   Overcast
10:15 AM 33.8 °F 25.3 °F 33.8 °F 100% 29.81 in 5.0 mi South 11.5 mph 18.4 mph 0.00 in   Overcast
10:35 AM 33.8 °F 24.3 °F 33.8 °F 100% 29.81 in 5.0 mi South 13.8 mph 18.4 mph 0.00 in   Overcast
10:55 AM 33.8 °F 22.8 °F 33.8 °F 100% 29.80 in 5.0 mi South 18.4 mph 21.9 mph 0.00 in   Mostly Cloudy
11:15 AM 33.8 °F 24.3 °F 33.8 °F 100% 29.80 in 5.0 mi South 13.8 mph 21.9 mph 0.00 in   Overcast
11:35 AM 33.8 °F 23.5 °F 33.8 °F 100% 29.80 in 5.0 mi South 16.1 mph - 0.00 in   Overcast
11:55 AM 33.8 °F 22.5 °F 33.8 °F 100% 29.80 in 6.0 mi South 19.6 mph - 0.00 in   Overcast
12:15 PM 35.6 °F 26.2 °F 33.8 °F 93% 29.79 in 8.0 mi SSW 15.0 mph 24.2 mph 0.00 in   Overcast
12:35 PM 35.6 °F 25.2 °F 33.8 °F 93% 29.79 in 8.0 mi South 18.4 mph 23.0 mph 0.00 in   Overcast
12:55 PM 37.4 °F 27.8 °F 35.6 °F 93% 29.78 in 8.0 mi South 17.3 mph 24.2 mph 0.00 in   Mostly Cloudy
1:15 PM 37.4 °F 27.8 °F 33.8 °F 87% 29.77 in 9.0 mi South 17.3 mph 25.3 mph 0.00 in   Overcast
1:35 PM 37.4 °F 27.8 °F 35.6 °F 93% 29.76 in 10.0 mi South 17.3 mph 24.2 mph 0.00 in   Mostly Cloudy
1:55 PM 37.4 °F 27.5 °F 33.8 °F 87% 29.75 in 10.0 mi South 18.4 mph 23.0 mph 0.00 in   Scattered Clouds
2:15 PM 39.2 °F 29.8 °F 35.6 °F 87% 29.75 in 10.0 mi South 18.4 mph 21.9 mph 0.00 in   Scattered Clouds
2:35 PM 41.0 °F 33.5 °F 35.6 °F 81% 29.75 in 10.0 mi SSW 13.8 mph 20.7 mph 0.00 in   Mostly Cloudy
2:55 PM 41.0 °F 33.9 °F 35.6 °F 81% 29.74 in 10.0 mi South 12.7 mph 19.6 mph 0.00 in   Mostly Cloudy
3:15 PM 42.8 °F 34.8 °F 35.6 °F 76% 29.74 in 10.0 mi SSW 17.3 mph 24.2 mph 0.00 in   Overcast
3:35 PM 42.8 °F 35.4 °F 35.6 °F 76% 29.74 in 10.0 mi South 15.0 mph - 0.00 in   Overcast
3:55 PM 44.6 °F 37.4 °F 35.6 °F 71% 29.74 in 10.0 mi SSW 16.1 mph 26.5 mph 0.00 in   Overcast
4:15 PM 42.8 °F 35.8 °F 35.6 °F 76% 29.76 in 10.0 mi SW 13.8 mph 18.4 mph 0.00 in   Overcast
4:35 PM 44.6 °F 37.4 °F 35.6 °F 71% 29.76 in 10.0 mi WSW 16.1 mph 20.7 mph 0.00 in   Mostly Cloudy
4:55 PM 44.6 °F 36.9 °F 35.6 °F 71% 29.77 in 10.0 mi SW 18.4 mph 23.0 mph 0.00 in   Mostly Cloudy
5:15 PM 44.6 °F 36.1 °F 33.8 °F 66% 29.77 in 10.0 mi SW 21.9 mph - 0.00 in   Mostly Cloudy
5:35 PM 44.6 °F 37.2 °F 35.6 °F 71% 29.78 in 10.0 mi SW 17.3 mph 23.0 mph 0.00 in   Mostly Cloudy
5:55 PM 44.6 °F 37.4 °F 33.8 °F 66% 29.79 in 10.0 mi SW 16.1 mph 21.9 mph 0.00 in   Scattered Clouds
6:15 PM 42.8 °F 34.8 °F 33.8 °F 70% 29.80 in 9.0 mi WSW 17.3 mph 23.0 mph 0.00 in   Partly Cloudy
6:35 PM 41.0 °F 33.5 °F 35.6 °F 81% 29.82 in 10.0 mi West 13.8 mph 23.0 mph 0.00 in   Mostly Cloudy
6:55 PM 39.2 °F 32.0 °F 35.6 °F 87% 29.84 in 10.0 mi West 11.5 mph - 0.00 in   Mostly Cloudy
7:15 PM 39.2 °F 30.5 °F 33.8 °F 81% 29.86 in 10.0 mi West 16.1 mph 24.2 mph 0.00 in   Overcast
7:35 PM 37.4 °F 29.3 °F 32.0 °F 81% 29.88 in 10.0 mi West 12.7 mph 20.7 mph 0.00 in   Overcast
7:55 PM 35.6 °F 27.5 °F 32.0 °F 87% 29.88 in 10.0 mi West 11.5 mph - 0.00 in   Overcast
8:15 PM 33.8 °F 26.4 °F 30.2 °F 87% 29.89 in 10.0 mi West 9.2 mph - 0.00 in   Scattered Clouds
8:35 PM 33.8 °F 27.0 °F 32.0 °F 93% 29.89 in 10.0 mi West 8.1 mph - 0.00 in   Scattered Clouds
8:55 PM 35.6 °F 26.6 °F 32.0 °F 87% 29.90 in 10.0 mi West 13.8 mph - 0.00 in   Overcast
9:15 PM 35.6 °F 25.5 °F 30.2 °F 81% 29.90 in 10.0 mi West 17.3 mph 26.5 mph 0.00 in   Overcast
9:35 PM 35.6 °F 27.1 °F 30.2 °F 81% 29.91 in 10.0 mi West 12.7 mph 18.4 mph 0.00 in   Overcast
9:55 PM 35.6 °F 27.5 °F 30.2 °F 81% 29.92 in 10.0 mi West 11.5 mph 20.7 mph 0.00 in   Mostly Cloudy
10:15 PM 35.6 °F 27.1 °F 30.2 °F 81% 29.92 in 10.0 mi West 12.7 mph 19.6 mph 0.00 in   Overcast
10:35 PM 35.6 °F 26.6 °F 30.2 °F 81% 29.92 in 10.0 mi WSW 13.8 mph - 0.00 in   Overcast
10:55 PM 35.6 °F 26.6 °F 30.2 °F 81% 29.92 in 10.0 mi West 13.8 mph - 0.00 in   Overcast
11:15 PM 35.6 °F 28.0 °F 28.4 °F 75% 29.92 in 10.0 mi West 10.4 mph - 0.00 in   Overcast
11:35 PM 33.8 °F 25.8 °F 28.4 °F 81% 29.91 in 10.0 mi West 10.4 mph - 0.00 in   Overcast
11:55 PM 33.8 °F 25.8 °F 28.4 °F 81% 29.91 in 10.0 mi West 10.4 mph - 0.00 in   Scattered Clouds